Lexington Weather

Lexington, Massachusetts, USA

71°F
8/7/2020 10:36am 
  • Lexington Conditions: Mostly cloudy
  • Temperature: 70.7°F / 21.5°CWarmer 1.4°F than last hour.
  • Dew Point: 62.8°FIncreased 1.1°Fsince last hour.
  • Relative Humidity: 76%Decreased 1.0% since last hour.
  • Wind: Calm, 10-min avg: Calm, gust: None
  • Barometer: 30.15 in Steady
  • Visibility: 10 miles
  • Rain Today: 0.00 in
  •   

Regional Weather Roundup
for Boston / Norton, MA

        
000
ASUS41 KBOX 031804
RWRBOX

REGIONAL WEATHER ROUNDUP
NATIONAL WEATHER SERVICE BOSTON/NORTON MA
200 PM EDT MON AUG 03 2020

NOTE:  "FAIR" INDICATES FEW OR NO CLOUDS BELOW 12,000 FEET WITH NO 
SIGNIFICANT WEATHER AND/OR OBSTRUCTIONS TO VISIBILITY.

MAZALL-031900-
EASTERN MASSACHUSETTS
  
CITY           SKY/WX    TMP DP  RH WIND       PRES   REMARKS
BOSTON         MOSUNNY   91  61  36 W16G24    29.93R HX  91           
6HR MIN TEMP:  81; 6HR MAX TEMP:  92;                                

BEVERLY        SUNNY     90  63  40 W16G28    29.92R HX  91           
LAWRENCE       MOSUNNY   88  66  48 SW13G24   29.95R HX  90           
BEDFORD        MOSUNNY   89  65  44 W13G22    29.93S HX  91           
BLUE HILL      NOT AVBL                                               
NORWOOD        MOSUNNY   92  61  35 W17G28    29.94R HX  92           
MARSHFIELD     SUNNY     95  64  36 SW17G29   29.92S HX  97           
PLYMOUTH       SUNNY     94  62  34 SW22G31   29.95S HX  94           
TAUNTON        SUNNY     94  62  34 SW15G22   29.94S HX  94           
NEW BEDFORD    SUNNY     91  65  41 W22G30    29.96S HX  93           
$$

MAZALL-031900-
CAPE COD AND THE ISLANDS
  
CITY           SKY/WX    TMP DP  RH WIND       PRES   REMARKS
FALMOUTH       SUNNY     88  66  48 SW25      29.98S HX  90           
HYANNIS        SUNNY     90  66  45 SW23G36   29.96S HX  92           
CHATHAM        SUNNY     86  74  67 SW12G21   30.00S HX  94           
PROVINCETOWN   SUNNY     87  69  54 SW18G26   29.95S HX  91           
NANTUCKET      CLOUDY    81  74  79 SW15      30.01S                  
MARTHAS VNYRD  SUNNY     87  69  54 SW14G26   30.00S HX  91           
$$
 
MAZALL-031900-
CENTRAL AND WESTERN MASSACHUSETTS
  
CITY           SKY/WX    TMP DP  RH WIND       PRES   REMARKS
WORCESTER      MOSUNNY   84  63  49 SW15G24   30.01S                  
6HR MIN TEMP:  75; 6HR MAX TEMP:  85;                                

FITCHBURG      SUNNY     87  62  43 VRB7G22   29.97S                  
ORANGE         MOSUNNY   84  61  45 W16G22    30.00R                  
SPRINGFIELD    NOT AVBL                                               
WESTFIELD      MOSUNNY   86  63  45 W6        29.98S                  
NORTH ADAMS    PTSUNNY   80  62  54 VRB6      30.01S                  
PITTSFIELD     MOSUNNY   79  61  53 W10       30.03R                  
$$
 
RIZALL-031900-
RHODE ISLAND
  
CITY           SKY/WX    TMP DP  RH WIND       PRES   REMARKS
PROVIDENCE     MOSUNNY   93  61  34 SW14G20   29.97S HX  93           
6HR MIN TEMP:  83; 6HR MAX TEMP:  94;                                

NEWPORT        SUNNY     88  67  49 VRB7G24   29.99S HX  91           
BLOCK ISLAND   SUNNY     81  66  60 SW17      30.03R                  
SMITHFIELD     SUNNY     89  62  40 W16G25    29.98S                  
WESTERLY       SUNNY     88  61  40 SW12G20   30.00F                  
$$
 
CTZALL-031900-
CONNECTICUT
  
CITY           SKY/WX    TMP DP  RH WIND       PRES   REMARKS
BRADLEY INTL   MOSUNNY   89  62  40 NW7       29.97F                  
6HR MIN TEMP:  78; 6HR MAX TEMP:  90;                                

HARTFORD       SUNNY     89  61  38 W10G21    29.97F                  
BRIDGEPORT     SUNNY     86  66  51 SW14      30.00F                  
DANBURY        SUNNY     85  63  47 SW14      30.03S                  
GROTON         SUNNY     82  67  60 SW14      29.99S                  
NEW HAVEN      SUNNY     86  67  52 SW8G17    30.00S                  
CHESTER        FAIR      88  64  45 SW9G16    30.01S                  
MERIDEN        MOSUNNY   88  63  43 VRB6      29.99F                  
WILLIMANTIC    SUNNY     89  62  40 SW12G21   29.98F                  
OXFORD         MOSUNNY   84  65  52 W8        30.04S                  
$$

MEZ002-015-021-024-NHZ003-005-008-011-012-014-VTZ005-008-031900-
NORTHERN NEW ENGLAND
  
CITY           SKY/WX    TMP DP  RH WIND       PRES   REMARKS
PORTLAND ME    PTSUNNY   88  62  41 W13G21    29.88R                  
6HR MIN TEMP:  75; 6HR MAX TEMP:  89;                                

BANGOR ME      MOSUNNY   88  65  46 SW16G24   29.80S HX  90           
CONCORD NH     MOSUNNY   86  60  41 W13G31    29.94R                  
MANCHESTER NH  PTSUNNY   88  61  40 W12G22    29.93R                  
NASHUA NH      MOSUNNY   87  63  44 NW13G18   29.95R                  
PORTSMOUTH NH  MOSUNNY   89  59  36 W14G25    29.90                   
JAFFREY NH     MOSUNNY   83  60  45 W12       30.01R                  
KEENE NH       PTSUNNY   82  63  52 W12       29.99R                  
BURLINGTON VT  PTSUNNY   77  60  55 W10       29.97R                  
MT. WASHINGTON SHOWER    52  52 100 W53G64      N/A  VSB 0            
$$

NYZ052-076-031900-
EASTERN NEW YORK
  
CITY           SKY/WX    TMP DP  RH WIND       PRES   REMARKS
ALBANY         PTSUNNY   78  61  55 W13G23    30.01S                  
6HR MIN TEMP:  74; 6HR MAX TEMP:  81;                                

NEW YORK CITY  MOSUNNY   90  61  37 SW15G21   30.00F HX  90           
6HR MIN TEMP:  81; 6HR MAX TEMP:  90;                                

$$
 
ANZALL-031900-
MARINE OBSERVATIONS
  
STATION/POSITION TIME  TEMP    WIND        PRES    VSBY  WAVE
                       AIR SEA DIR/SP/G                  HT/PER
                 (UTC) (F)     (DEG/KT/KT) (MB)    (MI)  (FT/S)
BOSTON BUOY      1750   79 71  260/ 17/ 19 1011.5F         2/ 3
BUZZARDS BAY     1700          230/ 16/ 17 1016.7R
NANTUCKET SOUND  1750      78  220/ 16/ 19 1014.7R         2/ 3
MASS BAY-STELLWA 1704   76     290/ 10/ 12 1010.8S  1 7/8  2/ 4
ISLE OF SHOALS   1700   83     250/ 25/ 26 1011.7F
S OF BLOCK IS    1726      74                N/A           6/ 7
$$

......................KEY.........................
  SKY/WX - SKY CONDITION/PRESENT WEATHER
  TMP    - TEMPERATURE IN FAHRENHEIT
  DWPT   - DEWPOINT IN FAHRENHEIT
  RH     - RELATIVE HUMIDITY IN PERCENT
  WIND   - DIRECTION AND SPEED IN MPH
  PRES   - MEAN SEA LEVEL PRESSURE IN INCHES OF HG
  WCI    - WIND CHILL INDEX
  VSB    - VISIBILITY IN MILES
  HX     - HEAT INDEX
  TC     - TEMPERATURE IN CELSIUS
  VRB    - VARIABLE WIND DIRECTION
  N/A    - NOT AVAILABLE
  
      

Other recent Regional Weather Roundups

Fri Aug 7, 10:04am

Fri Aug 7, 9:04am

Fri Aug 7, 8:04am

Fri Aug 7, 7:04am

Fri Aug 7, 6:04am

Fri Aug 7, 5:04am

Fri Aug 7, 4:04am

Fri Aug 7, 3:04am

Fri Aug 7, 2:04am

Fri Aug 7, 1:05am

Fri Aug 7, 12:04am

Thu Aug 6, 11:04pm

Thu Aug 6, 10:04pm

Thu Aug 6, 9:04pm

Thu Aug 6, 8:04pm

Thu Aug 6, 7:04pm

Thu Aug 6, 6:04pm

Thu Aug 6, 5:04pm

Thu Aug 6, 4:05pm

Thu Aug 6, 3:04pm

Thu Aug 6, 2:05pm

Thu Aug 6, 1:04pm

Thu Aug 6, 12:04pm

Thu Aug 6, 11:04am

Thu Aug 6, 10:04am

Thu Aug 6, 9:04am

Thu Aug 6, 8:04am

Thu Aug 6, 7:04am

Thu Aug 6, 6:04am

Thu Aug 6, 5:04am

Thu Aug 6, 4:04am

Thu Aug 6, 3:04am

Thu Aug 6, 2:05am

Thu Aug 6, 1:04am

Thu Aug 6, 12:04am

Wed Aug 5, 11:04pm

Wed Aug 5, 10:04pm

Wed Aug 5, 9:04pm

Wed Aug 5, 8:05pm

Wed Aug 5, 7:04pm

Wed Aug 5, 6:04pm

Wed Aug 5, 5:04pm

Wed Aug 5, 4:05pm

Wed Aug 5, 3:04pm

Wed Aug 5, 2:04pm

Wed Aug 5, 1:04pm

Wed Aug 5, 12:04pm

Wed Aug 5, 11:04am

Wed Aug 5, 10:04am

Wed Aug 5, 9:04am

Wed Aug 5, 8:04am

Wed Aug 5, 7:04am

Wed Aug 5, 6:04am

Wed Aug 5, 5:04am

Wed Aug 5, 4:04am

Wed Aug 5, 3:04am

Wed Aug 5, 2:05am

Wed Aug 5, 1:04am

Wed Aug 5, 12:05am

Tue Aug 4, 11:05pm

Tue Aug 4, 10:05pm

Tue Aug 4, 9:04pm

Tue Aug 4, 8:04pm

Tue Aug 4, 7:05pm

Tue Aug 4, 6:05pm

Tue Aug 4, 5:05pm

Tue Aug 4, 4:05pm

Tue Aug 4, 3:04pm

Tue Aug 4, 2:05pm

Tue Aug 4, 1:04pm

Tue Aug 4, 12:05pm

Tue Aug 4, 11:04am

Tue Aug 4, 10:04am

Tue Aug 4, 9:04am

Tue Aug 4, 8:04am

Tue Aug 4, 7:04am

Tue Aug 4, 6:04am

Tue Aug 4, 5:04am

Tue Aug 4, 4:04am

Tue Aug 4, 3:04am

Tue Aug 4, 2:04am

Tue Aug 4, 1:04am

Tue Aug 4, 12:04am

Mon Aug 3, 11:04pm

Mon Aug 3, 10:04pm

Mon Aug 3, 9:04pm

Mon Aug 3, 8:05pm

Mon Aug 3, 7:04pm

Mon Aug 3, 6:04pm

Mon Aug 3, 5:04pm

Mon Aug 3, 4:05pm

Mon Aug 3, 3:04pm

Mon Aug 3, 1:04pm

Mon Aug 3, 12:05pm

Mon Aug 3, 11:04am

Mon Aug 3, 10:04am

Mon Aug 3, 9:05am

Mon Aug 3, 8:04am

Mon Aug 3, 7:04am

Mon Aug 3, 6:04am

Mon Aug 3, 5:04am

Mon Aug 3, 4:04am

Mon Aug 3, 3:04am

Mon Aug 3, 2:04am

Mon Aug 3, 1:04am

Mon Aug 3, 12:05am

Sun Aug 2, 11:04pm

Sun Aug 2, 10:04pm

Sun Aug 2, 9:04pm

Sun Aug 2, 8:04pm

Sun Aug 2, 7:04pm

Sun Aug 2, 6:04pm

Sun Aug 2, 5:04pm

Sun Aug 2, 4:05pm

Sun Aug 2, 3:04pm

Sun Aug 2, 2:05pm

Sun Aug 2, 1:04pm

Sun Aug 2, 12:04pm

Sun Aug 2, 11:04am

Sun Aug 2, 10:04am

Sun Aug 2, 9:05am

Sun Aug 2, 8:05am

Sun Aug 2, 7:04am

Sun Aug 2, 6:04am

Sun Aug 2, 5:04am

Sun Aug 2, 4:05am

Sun Aug 2, 3:04am

Sun Aug 2, 2:04am

Sun Aug 2, 1:04am

Sun Aug 2, 12:05am

Sat Aug 1, 11:04pm

Sat Aug 1, 10:04pm

Sat Aug 1, 9:04pm

Sat Aug 1, 8:05pm

Sat Aug 1, 7:04pm

Sat Aug 1, 6:04pm

Sat Aug 1, 5:05pm

Sat Aug 1, 4:05pm

Sat Aug 1, 3:04pm

Sat Aug 1, 2:04pm

Sat Aug 1, 1:04pm

Sat Aug 1, 12:04pm

Sat Aug 1, 11:05am

Sat Aug 1, 10:05am

Sat Aug 1, 9:04am

Sat Aug 1, 8:04am

Sat Aug 1, 7:04am

Sat Aug 1, 6:04am

Sat Aug 1, 5:04am

Sat Aug 1, 4:05am

Sat Aug 1, 3:04am

Sat Aug 1, 2:04am

Sat Aug 1, 1:04am

Sat Aug 1, 12:05am

Fri Jul 31, 11:05pm

Fri Jul 31, 10:04pm

Fri Jul 31, 9:04pm

Fri Jul 31, 8:05pm

Fri Jul 31, 7:05pm

Fri Jul 31, 6:04pm

Fri Jul 31, 5:04pm

Fri Jul 31, 4:05pm

Fri Jul 31, 3:04pm

Fri Jul 31, 2:05pm

Fri Jul 31, 1:04pm

Fri Jul 31, 12:04pm

Fri Jul 31, 11:04am

Meta data:

ID: 9db32f9f-b77b-4e2c-a4b4-1927ff55d99b
Link: https://api.weather.gov/products/9db32f9f-b77b-4e2c-a4b4-1927ff55d99b